COSMOS 2491 DEB, 57559

Orbit data source: Space-Track

COSMOS 2491 DEB, 57559 is space debris in LEO originally from a launch on Wed, 25 Dec 2013 UTC launched from the Plesetsk Missile And Space Complex (PKMTR). Debris objects in space refer to the collection of defunct objects orbiting the Earth. Examples of debris include non-operational satellites, rocket bodies, and fragments generated from explosions, collisions, or faulty payload assembly.

Loading next visibility...
Identifier
57559, 2013-076AW
Orbit
LEO
Country
Flag of CISCIS
Related business
Manufacturer
TsNIIKhM
Mission
Spacecraft
Bus & Motor
Unknown
Mass
Unknown
Launch date (UTC)
2013-12-25 (13 years ago)
Launch vehicle
Unknown
Launch site
Plesetsk Missile And Space Complex (PKMTR)
Object type
Payload
Rocket body
Debris
Shape & HBR
Unknown shape, 0.1 m
Radar Cross Section
Small (<0.1 m²)

Expand to show TLE details & history
Last TLE update: 1 day ago

TLE from 1 day ago
0 COSMOS 2491 DEB
1 57559U 13076AW  26254.85093226  .00000501  00000-0  34128-2 0  9998
2 57559  82.4809 112.8964 0017715 333.6666  26.3513 12.45763357151920
Epoch: 2026-09-11T20:25Z
TLE epoch observation values (Epoch: 2026-09-11T20:25:20.547Z)
Latitude
-0.00003°
Longitude
175.69242°
Altitude
1,472.494 km
Speed
7.132 km/s
True Right ascension
07h 31m 35s
True Declination
0° 00' 00"
Sunlit
Object was in daylight at epoch
Visualization orbit readout
Latitude
Unknown
Longitude
Unknown
Altitude
Unknown
Speed
Unknown
Apparent Right ascension
Unknown
Apparent Declination
Unknown
Sunlit
N/A
Visualization observer readout
Local Sidereal Time
21:40:24
Azimuth
Unknown
Elevation
Unknown
Doppler factor
Unknown
Orbital elements
Apogee altitude
1,493.534 km
Perigee altitude
1,465.694 km
Semi-major axis
7,857.751 km
Eccentricity
0.00177
Inclination
82.4809°
RAAN
112.8964°
Arg. of periapsis
333.6666°
True anomaly
26.44158°
Mean anomaly
26.3513°
Eccentric anomaly
26.39642°
Mean motion
3.11599 °/min
Orbital period
115.53 mins
BSTAR
0.0034128
Loading maneuver chart data...
Computing Atmospheric mass density...
Loading historical data...
Loading historical data...
Loading historical data...
Loading historical data...
Loading historical data...
Loading historical data...
Loading historical data...

Documentation

Showing up to 5 results
|